Regional Weather Roundup
Issued by NWS Pendleton, OR

Home | Current Version | Previous Version | Text Only | Print | Product List | Glossary On
Versions: 1 2 3 4 5 6 7 8 9 10 11 12 13 14 15 16 17 18 19 20 21 22 23 24 25 26 27 28 29 30 31 32 33 34 35 36 37 38 39 40 41 42 43 44 45 46 47 48 49 50
000
ASUS46 KPDT 022325
RWRPDT
PENDLETON REGIONAL WEATHER ROUNDUP
NATIONAL WEATHER SERVICE PENDLETON OREGON
400 PM PDT TUE JUN 2 2015

NOTE: FAIR INDICATES FEW OR NO CLOUDS BELOW 12,000 FEET WITH NO
SIGNIFICANT WEATHER AND/OR OBSTRUCTIONS TO VISIBILITY.

# INDICATES UNOFFICIAL STATION AND DATA

WAZ520-030010-
EAST SLOPES OF WASHINGTON CASCADES

CITY            SKY/WX      TMP DP  RH  WIND    PRES   REMARKS
#BULLFROG 2SW   N/A         55  44  66  N12     27.61R
#BUMPING DAM    N/A         53  N/A N/A S6      N/A
#CLE ELUM HS    N/A         59  43  55  NW8     29.93S
#CLE ELUM LAKE  N/A         56  44  64  W2      29.92R
#CLIFFDEL 2NW   N/A         52  46  80  W3      N/A
#GLENWOOD       N/A         63  50  62  S7      29.95F
#NELSON         N/A         58  45  62  CALM    29.95S
#NELSON 3SW     N/A         55  43  64  CALM    30.14R
#NILE           N/A         58  46  64  W5      29.20R
#RONALD 2NW     N/A         58  41  53  W2      29.87R
#SNOWDEN        N/A         56  34  43  N7      N/A
#TEANAWAY 4NE   N/A         61  46  58  W6      N/A
#TROUT LAKE 1NE N/A         58  46  64  NW9     29.98S
$$

WAZ521-030010-
SIMCOE HIGHLANDS

CITY            SKY/WX      TMP DP  RH  WIND    PRES   REMARKS
#BICKLETON HS   N/A         62  34  35  W17     N/A
#CENTERVILLE 4W N/A         65  46  50  NW24    29.74S
#CENTERVILLE 1SWN/A         64  45  50  NW21    29.92F
#GOLDENDALE     N/A         65  42  43  W15G24  N/A
#GOODNOE HILLS  N/A         70  44  39  W26     N/A
#LYLE 6NE       N/A         61  47  60  NW10    29.95F
$$

WAZ026-030010-
KITTITAS VALLEY

CITY            SKY/WX      TMP DP  RH  WIND    PRES   REMARKS
ELLENSBURG AP   CLOUDY      65  42  43  NW29G36 29.94S
YTC-OPS AREA    N/A         57  44  62  W23G36  29.93R
#ELLENSBURG CWU N/A         62  43  50  N17     29.85S
#ELLENSBURG 3NE N/A         61  44  53  NW12G26 29.94S
#KITTITAS 4N    N/A         64  43  46  N17     28.25R
#KITTITAS 3S    N/A         63  45  52  NW15    29.87S
#THORP 6N       N/A         58  44  60  W15G31  29.93R
$$

WAZ027-030010-
YAKIMA VALLEY

CITY            SKY/WX      TMP DP  RH  WIND    PRES   REMARKS
SUNNYSIDE AP    CLOUDY      70  44  39  W12     29.91S
YAKIMA AIRPORT  MOCLDY      73  40  30  NW16G24 29.92S
#DONALD 2NE     N/A         72  32  23  W3      28.78R
#GRANDVIEW      N/A         72  39  30  CALM    29.89S
#MABTON         N/A         73  44  35  W12     29.90S
#MOXEE 2E       N/A         66  25  21  NW6     29.84S
#NACHES 2SW     N/A         66  46  48  W7      29.94S
#OUTLOOK DOT    N/A         N/A N/A N/A SW12    N/A
#SELAH 8E       N/A         67  42  40  N12     N/A
#TERRACE HTS    N/A         74  41  30  N7      29.85R
#TOPPENISH      N/A         72  44  37  W10     29.80S
#WAPATO 4NE     N/A         72  32  23  W3      28.78R
#WEST VALLEY    N/A         69  40  35  W6      29.87S
#W YAKIMA       N/A         68  41  37  W6      29.88S
#WHITE SWAN 5E  N/A         72  46  39  W18G26  29.89R
#WILEY CITY 3W  N/A         71  38  30  CALM    29.89R
$$

WAZ028-030010-
LOWER COLUMBIA BASIN...WASHINGTON

CITY            SKY/WX      TMP DP  RH  WIND    PRES   REMARKS
HANFORD         MOCLDY      74  41  30  NW9     29.89F
PASCO           MOSUNNY     79  41  26  SW22G32 29.90F
#BASIN CITY 5SW N/A         72  50  46  NW7     29.88F
#BENTON CITY    N/A         72  44  37  W1      29.79F
#CONNELL 5N     N/A         75  45  34  W8      29.86S
#CONNELL 5NW    N/A         73  49  43  W7      29.83S
#ELTOPIA        N/A         76  44  32  SW12    29.84S
#ELTOPIA 6NW    N/A         71  47  42  NW3     28.87F
#KAHLOTUS       N/A         71  41  34  NW22G35 29.86F
#KENNEWICK      N/A         55  44  66  N12     27.61R
#KENNEWICK 3S   N/A         74  45  35  SW7     29.89S
#PATERSON       N/A         73  42  33  W18G26  29.89F
#PROSSER        N/A         72  38  29  NW5     29.88S
#SAGEMOOR 2W    N/A         74  49  41  S7      29.72S
#TOUCHET 2S     N/A         73  51  46  W6      29.88F
#WEST PASCO     N/A         79  47  32  W7      29.88F
$$

WAZ029-030010-
FOOTHILLS OF THE BLUES...WASHINGTON

CITY            SKY/WX      TMP DP  RH  WIND    PRES   REMARKS
WALLA WALLA AP  PTCLDY      74  39  28  SW17G25 29.94F
#DAYTON SCHOOL  N/A         70  34  26  SW7     29.96S
#LOWDEN 2SE     N/A         75  50  41  W12     29.88F
#PLEASANT VIEW 1N/A         71  43  36  SW10    29.92F
#PRESCOTT       N/A         73  43  34  W7      29.88F
#SUDBURY        N/A         74  N/A N/A CALM    N/A
#WHITMAN COLLEGEN/A         72  43  35  W14     29.95F
#WAITSBURG 8N   N/A         71  20  14  S17     29.76S
#WALLA WALLA U  N/A         75  44  33  W7      29.89F
#WHITMAN MISSIONN/A         73  47  40  W7      29.91F
$$

WAZ030-030010-
BLUE MOUNTAINS...WASHINGTON

CITY            SKY/WX      TMP DP  RH  WIND    PRES   REMARKS
#DIXIE 5SE      N/A         60  39  46  SW10    29.93F
$$

ORZ009-041-WAZ024-030010-
COLUMBIA RIVER GORGE

CITY            SKY/WX      TMP DP  RH  WIND    PRES   REMARKS
HOOD RIVER AP   CLOUDY      63  50  62  NW15    30.02S
THE DALLES AP   SUNNY       70  46  42  NW24G30 29.97F
#ARLINGTON AIRPON/A         71  45  39  W21     29.82S
#ARLINGTON HS   N/A         73  42  33  W7      29.83F
#CELILO DOT     N/A         74  50  43  W8      N/A
#MOSIER 1S      N/A         62  40  44  NW5     30.00R
#MURDOCK        N/A         67  51  56  W24     29.99F
#RUFUS DOT      N/A         71  48  44  NW29    N/A

$$

ORZ510-030010-
NORTH CENTRAL OREGON

CITY            SKY/WX      TMP DP  RH  WIND    PRES   REMARKS
#CHENOWITH 1W   N/A         60  46  60  NW28    N/A
#COW CYN RST AREN/A         61  N/A N/A SW6     N/A
#DUFUR 9E       N/A         60  47  62  NW18G31 30.02S
#GRASS VALLEY 1SN/A         67  47  49  N10     29.96F
#KENT DOT       N/A         62  41  46  SW12    N/A
#MAUPIN SCHOOL  N/A         72  46  39  NW5     29.98S
#MORO SCHOOL    N/A         63  51  65  NW14    30.00S
#SHANIKO 5WSW   N/A         61  35  38  W12     N/A
#SHANIKO 4NW    N/A         57  40  53  NW9     30.02S
#TYGH VALLEY 2NEN/A         70  47  44  W7      29.93S
#WAPANITIA AIRPON/A         67  44  43  NW7     29.96S
#WASCO DOT      N/A         68  45  44  W22     N/A
#WASCO AIRPORT  N/A         69  41  36  W8      N/A
#WASCO 5NE      N/A         69  46  44  N12     29.94F
$$

ORZ511-030010-
CENTRAL OREGON

CITY            SKY/WX      TMP DP  RH  WIND    PRES   REMARKS
BEND AIRPORT    MOCLDY      59  37  44  W12     30.04S
MADRAS AIRPORT  CLOUDY      68  37  32  SW12    30.02F
PRINEVILLE AP   MOCLDY      64  39  40  NW16G24 30.02S
REDMOND AIRPORT MOSUNNY     64  39  40  NW15G28 30.02F
#BEND 1SW       N/A         60  40  47  W1      N/A
#BEND-AWBREY    N/A         56  48  74  CALM    29.99R
#BEND-KIM LN    N/A         60  45  58  NW3     30.01R
#CROOKED RVR RANN/A         64  43  46  NW12    29.96S
#LAKE BILLY CHINN/A         64  -4   6  S10     30.07F
#POWELL BUTTE 3EN/A         60  42  51  W7      N/A
#POWELL BUTTE   N/A         65  44  46  N8      29.65F
#PRINEVILLE 3N  N/A         65  45  48  W10     29.91S
#WARM SPRINGS   N/A         65  46  50  NE5     29.96S

$$


ORZ509-030010-
EAST SLOPES OF OREGON CASCADES

CITY            SKY/WX      TMP DP  RH  WIND    PRES   REMARKS
#BLUE BOX PASS  N/A         47  -5  11  W3      N/A
#CAMP SHERMAN   N/A         62  44  52  W3      30.00F
#LA PINE 4NW    N/A         55  40  57  W5      30.04R
#SISTERS AIRPOR N/A         59  47  64  N16G24  30.17S
#SISTERS ODOT   N/A         60  N/A N/A S8      N/A
#SISTERS 1NW    N/A         58  38  47  NW14    N/A
#SISTERS 3N     N/A         61  42  50  W2      30.04S
#SUNRIVER       N/A         57  42  57  NW7     29.88S
#TUMALO 3W      N/A         58  40  51  N10     29.86F
#WANOGA BUTTE D N/A         45  35  68  W12     N/A    WCI 39

$$

ORZ044-030010-
LOWER COLUMBIA BASIN...OREGON

CITY            SKY/WX      TMP DP  RH  WIND    PRES   REMARKS
HERMISTON       PTCLDY      77  42  29  W18G24  29.93S
#BOARDMAN SCHOOLN/A         74  43  33  SW12    29.93F
#ECHO 8SW       N/A         74  45  35  W9      29.94F
#IONE SCHOOL    N/A         70  43  38  W10     29.92F
#IRRIGON 4NW    N/A         77  45  32  S16G24  N/A
#UMATILLA SCHOOLN/A         76  53  45  W12     29.95F
#UMATILLA       N/A         75  45  34  SW9     29.83F
$$

ORZ507-030010-
NORTHERN FOOTHILLS OF THE BLUES

CITY            SKY/WX      TMP DP  RH  WIND    PRES   REMARKS
PENDLETON AIRPT PTCLDY      72  42  34  NW20G25 29.94S
#ADAMS 3WNW     N/A         68  45  44  W7      29.90S
#ATHENA         N/A         69  43  39  W5      29.93F
#CAYUSE         N/A         68  46  45  W9      29.90F
#HELIX SCHOOL   N/A         69  43  39  W9G26   29.91S
#HELIX 3N       N/A         68  43  40  SW17G25 29.93S
#HELIX 6SW      N/A         68  45  44  W14     29.94F
#HOLDMAN 5SE    N/A         72  45  38  E14G24  29.95F
#HOLDMAN 6E     N/A         70  43  38  NE12    29.72F
#M-F FERNDALE   N/A         77  46  33  CALM    29.92F
#M-F GROVE ELEM N/A         73  40  30  NW2     29.92F
#M-FREEWATER 5SEN/A         71  49  46  W7      29.94F
#PENDLETON DNTN N/A         76  41  28  NW7     29.93S
#PDT AQUATIC CTRN/A         76  45  33  W7      29.95S
#PDT SUNRIDGE   N/A         71  44  38  W7      29.94F
#PENDLETON 7NW  N/A         72  49  44  NW7     29.06R
#PILOT ROCK     N/A         70  42  36  W5      29.96F
#TUTUILLA       N/A         69  47  45  W10     29.92F
#UMAPINE 2E     N/A         75  50  41  W7      29.90F
#WESTON SCHOOL  N/A         68  40  36  N1      29.89F

$$

ORZ508-030010-
SOUTHERN FOOTHILLS OF THE BLUES

CITY            SKY/WX      TMP DP  RH  WIND    PRES   REMARKS
#AJAX           N/A         65  40  40  W5      29.92F
#CONDON SCHOOL  N/A         62  40  44  CALM    29.96S
#CONDON 5W      N/A         62  38  41  W15     29.98S
#FOSSIL SCHOOL  N/A         64  41  43  NW10    29.94F
#HEPPNER EOC    N/A         67  41  39  NW7G25  29.85F
#HEPPNER 4NE    N/A         64  41  43  SW7     29.91F
#LEXINGTON 2SE  N/A         70  46  42  NW10    29.91F
#RUGGS 5NE      N/A         65  38  37  W12     30.14F
#RUGGS 2SW      N/A         66  40  38  W8      29.93F

$$

ORZ502-503-030010-
BLUE MOUNTAINS

CITY            SKY/WX      TMP DP  RH  WIND    PRES   REMARKS
MEACHAM         MOCLDY      58  42  55  CALM    30.01F
#BATTLE MTN DOT N/A         55  46  72  SE2     N/A
#HEPPNER 15SE   N/A         58  41  53  CALM    29.91F
#LADD CYN SMT   N/A         57  43  59  NW9     N/A
#LONG CREEK HS  N/A         54  47  77  CALM    29.98S
#N POWDER DOT   N/A         61  45  56  NE9     N/A
#PIKES PEAK     N/A         58  41  53  W12     27.99S
#TOLLGATE       N/A         50  42  74  CALM    29.97S
#TROY SCHOOL    N/A         74  47  38  SW3     29.74S
#UKIAH          N/A         60  46  60  NW1     29.95R
#WESTON 4E      N/A         63  46  54  W7      29.88F
$$

ORZ505-030010-
JOHN DAY BASIN

CITY            SKY/WX      TMP DP  RH  WIND    PRES   REMARKS
JOHN DAY        THUNDER     58  46  64  SW13    30.04R
#JOHN DAY KJDY  N/A         62  50  65  SW3     29.81R
#DAYVILLE SCHOOLN/A         61  50  67  N3      29.98R
#MONUMENT HS    N/A         66  44  45  SE6     29.97F
#MT. VERNON 5SE N/A         57  45  64  W7      29.98R
$$

ORZ506-030010-
OCHOCO AND JOHN DAY HIGHLANDS

CITY            SKY/WX      TMP DP  RH  WIND    PRES   REMARKS
#BUCK CREEK DOT N/A         59  59  100 W20     N/A
#HORSE RIDGE DO N/A         58  35  42  W14     N/A
#KEYES SMT DOT  N/A         57  43  59  NW15    N/A
#PAULINA SCHOOL N/A         62  43  50  W7      30.00S
#PINE MTN OBS   N/A         46  39  76  NW3     N/A
#PRAIRIE CITY   N/A         57  48  72  SW2     29.97R
#SENECA         N/A         49  N/A N/A SW5     N/A
#SENECA 9NW     N/A         49  46  89  CALM    29.93R
$$

ORZ049-030010-
GRANDE RONDE VALLEY

CITY            SKY/WX      TMP DP  RH  WIND    PRES   REMARKS
LA GRANDE       CLOUDY      63  45  52  W3      29.98F
#ELGIN 3N       N/A         63  46  54  S6      29.96F
#ELGIN 1E       N/A         62  53  72  CALM    N/A
#ISLAND CITY 4N N/A         60  56  87  CALM    30.05S
#LADD CYN DOT   N/A         60  46  60  CALM    N/A
#LA GRANDE ELEM N/A         61  50  67  CALM    30.01S
#UNION 1S       N/A         61  51  70  CALM    29.85R
$$

ORZ050-030010-
WALLOWA COUNTY

CITY            SKY/WX      TMP DP  RH  WIND    PRES   REMARKS
JOSEPH AIRPORT  N/A         59  45  60  NE6     30.02F
#ENTERPRISE HS  N/A         56  49  77  N5      30.01S
#IMNAHA SCHOOL  N/A         63  55  75  CALM    29.96F
#IMNAHA 10S     N/A         62  51  67  NE1     29.97F
#JOSEPH 3N      N/A         54  46  74  N2      30.03S
#JOSEPH 3W      N/A         57  46  67  N3      29.88S
#LOSTINE        N/A         58  46  64  W2      29.73R
#MT HOWARD 8000 N/A         40  38  92  N2      30.10F
#PROMISE 1S     N/A         59  42  53  E5      30.04R
#WALLOWA SCHOOL N/A         54  49  83  CALM    30.84R



$$



USA.gov is the U.S. government's official web portal to all federal, state and local government web resources and services.